Fort Dodge, IA

5:46 AM CDT on October 16, 2019 (GMT -0500)
Fort Dodge Regional

Weather History for KFOD - September, 2019

Change the Weather History Date:

Sunday, September 22, 2019

  Actual Average Record
Temperature  
Mean Temperature 61 °F -  
Max Temperature 71 °F 69 °F 93 °F (2017)
Min Temperature 51 °F 45 °F 28 °F (1974)
Degree Days  
Heating Degree Days 4    
Growing Degree Days 11 (Base 50)    
Moisture  
Dew Point 60 °F    
Average Humidity 93    
Maximum Humidity 100    
Minimum Humidity 73    
Precipitation  
Precipitation 2.76 in - - ()
Sea Level Pressure  
Sea Level Pressure 29.95 in    
Wind  
Wind Speed 7 mph (West)    
Max Wind Speed 24 mph    
Max Gust Speed 46 mph    
Visibility 6 miles    
Events Fog , Rain , Thunderstorm    
Averages and records for this station are not official NWS values.
T = Trace of Precipitation, MM = Missing Value Source: NWS Daily Summary

Daily Weather History Graph

Daily Weather History Graph

Search for Another Location

Airport or City:

Astronomy

Sep. 22, 2019 Rise Set
Actual Time 7:03 AM CDT 7:14 PM CDT
Civil Twilight 6:35 AM CDT 7:42 PM CDT
Nautical Twilight 6:02 AM CDT 8:15 PM CDT
Astronomical Twilight 5:29 AM CDT 8:48 PM CDT
Moon No Moon Rise 3:18 PM CDT (9/22)
Length of Visible Light 13h 06m
Length of Day
12h 10m
Last Quarter, 44% of the Moon is Illuminated
Sep 22
Last Quarter
Sep 28
New
Oct 5
First Quarter
Oct 13
Full
Oct 21
Last Quarter

Hourly Weather History & Observations

Time (CDT) Temp. Dew Point Humidity Pressure Visibility Wind Dir Wind Speed Gust Speed Precip Events Conditions
12:20 AM 71.6 °F 71.6 °F 100% 29.88 in 10.0 mi West 5.8 mph - 0.01 in Rain , Thunderstorm Thunderstorms and Rain
12:27 AM 71.6 °F 62.6 °F 73% 29.88 in 2.5 mi South 12.7 mph 40.3 mph 0.28 in Rain , Thunderstorm Heavy Thunderstorms and Rain
12:31 AM 69.8 °F 62.6 °F 78% 29.89 in 2.0 mi South 9.2 mph 40.3 mph 0.37 in Rain , Thunderstorm Heavy Thunderstorms and Rain
12:35 AM 66.2 °F 64.4 °F 94% 29.90 in 1.5 mi SSW 13.8 mph 26.5 mph 0.66 in Rain , Thunderstorm Heavy Thunderstorms and Rain
12:38 AM 68.0 °F 64.4 °F 88% 29.91 in 1.0 mi South 24.2 mph 46.0 mph 0.86 in Rain Heavy Rain
12:42 AM 69.8 °F 60.8 °F 73% 29.89 in 1.0 mi WSW 12.7 mph 46.0 mph 1.03 in Rain , Thunderstorm Heavy Thunderstorms and Rain
12:46 AM 66.2 °F 60.8 °F 83% 29.89 in 1.5 mi West 9.2 mph 46.0 mph 1.17 in Rain , Thunderstorm Heavy Thunderstorms and Rain
12:49 AM 68.0 °F 59.0 °F 73% 29.90 in 3.0 mi West 17.3 mph 28.8 mph 1.23 in Rain Heavy Rain
12:56 AM 66.0 °F 63.0 °F 90% 29.98 in 8.0 mi WNW 18.4 mph 34.5 mph 1.28 in Rain , Thunderstorm Heavy Thunderstorms and Rain
1:00 AM 64.4 °F 60.8 °F 88% 29.92 in 9.0 mi NW 16.1 mph 34.5 mph 0.01 in Rain , Thunderstorm Heavy Thunderstorms and Rain
1:41 AM 64.4 °F 60.8 °F 88% 29.89 in 10.0 mi ESE 4.6 mph - 0.09 in Rain Light Rain
1:56 AM 63.0 °F 61.0 °F 93% 29.94 in 10.0 mi West 4.6 mph - 0.12 in Rain Rain
2:56 AM 63.0 °F 62.1 °F 97% 29.95 in 10.0 mi WNW 3.5 mph - 0.02 in Rain Light Rain
3:56 AM 63.0 °F 62.1 °F 97% 29.93 in 10.0 mi NE 3.5 mph - 0.00 in   Scattered Clouds
4:56 AM 64.0 °F 63.0 °F 96% 29.91 in 10.0 mi Calm Calm - N/A   Mostly Cloudy
5:56 AM 64.0 °F 63.0 °F 96% 29.93 in 10.0 mi SW 4.6 mph - N/A   Mostly Cloudy
6:31 AM 64.4 °F 62.6 °F 94% 29.88 in 10.0 mi SW 4.6 mph - N/A   Overcast
6:50 AM 64.4 °F 64.4 °F 100% 29.88 in 2.5 mi SSW 6.9 mph - 0.20 in Rain Heavy Rain
6:56 AM 64.0 °F 64.0 °F 100% 29.94 in 4.0 mi SSW 6.9 mph - 0.22 in Rain Rain
7:56 AM 63.0 °F 62.1 °F 97% 29.96 in 2.0 mi NW 3.5 mph - 0.38 in Rain Heavy Rain
7:58 AM 62.6 °F 62.6 °F 100% 29.90 in 1.8 mi WNW 3.5 mph - 0.02 in Rain Heavy Rain
8:05 AM 62.6 °F 62.6 °F 100% 29.90 in 2.5 mi NW 3.5 mph - 0.09 in Rain Heavy Rain
8:44 AM 60.8 °F 60.8 °F 100% 29.91 in 2.5 mi NW 5.8 mph - 0.50 in Rain Rain
8:49 AM 60.8 °F 60.8 °F 100% 29.91 in 4.0 mi NW 4.6 mph - 0.50 in Rain Light Rain
8:56 AM 61.0 °F 61.0 °F 100% 29.98 in 5.0 mi NW 4.6 mph - 0.53 in Rain Rain
9:56 AM 63.0 °F 63.0 °F 100% 29.99 in 7.0 mi NW 5.8 mph - 0.09 in Rain Rain
10:18 AM 62.6 °F 62.6 °F 100% 29.94 in 8.0 mi WNW 5.8 mph - 0.05 in Rain Rain
10:56 AM 61.0 °F 60.1 °F 97% 29.94 in 10.0 mi ENE 10.4 mph - 0.10 in Rain Light Rain
11:56 AM 64.0 °F 62.1 °F 93% 29.93 in 10.0 mi East 9.2 mph - 0.00 in   Scattered Clouds
12:56 PM 66.0 °F 61.0 °F 84% 29.95 in 10.0 mi SSE 3.5 mph - N/A   Overcast
1:03 PM 66.2 °F 60.8 °F 83% 29.89 in 10.0 mi Calm Calm - N/A   Overcast
1:31 PM 66.2 °F 60.8 °F 83% 29.89 in 10.0 mi SSW 5.8 mph - N/A   Overcast
1:39 PM 66.2 °F 60.8 °F 83% 29.89 in 10.0 mi South 4.6 mph - N/A   Overcast
1:56 PM 64.9 °F 61.0 °F 87% 29.96 in 10.0 mi WSW 4.6 mph - 0.00 in Rain Light Rain
2:14 PM 64.4 °F 62.6 °F 94% 29.89 in 10.0 mi WSW 4.6 mph - 0.01 in Rain Light Rain
2:24 PM 66.2 °F 62.6 °F 88% 29.90 in 10.0 mi West 4.6 mph - 0.01 in Rain Light Rain
2:56 PM 64.9 °F 61.0 °F 87% 29.97 in 10.0 mi West 6.9 mph - 0.01 in Rain Light Rain
3:56 PM 62.1 °F 57.0 °F 84% 29.97 in 10.0 mi NNW 4.6 mph - 0.01 in Rain Light Rain
4:56 PM 62.1 °F 59.0 °F 90% 29.99 in 10.0 mi North 5.8 mph - 0.00 in   Overcast
5:56 PM 63.0 °F 57.9 °F 84% 30.00 in 10.0 mi North 5.8 mph - N/A   Partly Cloudy
6:56 PM 60.1 °F 55.9 °F 86% 30.01 in 10.0 mi NE 3.5 mph - N/A   Partly Cloudy
7:56 PM 57.0 °F 55.9 °F 96% 30.04 in 10.0 mi Calm Calm - N/A   Clear
8:56 PM 55.0 °F 55.0 °F 100% 30.06 in 10.0 mi Calm Calm - N/A   Clear
9:36 PM 53.6 °F 53.6 °F 100% 29.99 in 3.0 mi Calm Calm - N/A   Scattered Clouds
9:49 PM 53.6 °F 53.6 °F 100% 29.99 in 1.5 mi Calm Calm - N/A   Scattered Clouds
9:51 PM 55.4 °F 53.6 °F 94% 29.99 in 0.8 mi Calm Calm - N/A   Mostly Cloudy
9:56 PM 55.0 °F 54.0 °F 96% 30.07 in 0.5 mi Calm Calm - N/A Fog Fog
10:13 PM 53.6 °F 53.6 °F 100% 30.00 in 0.8 mi Calm Calm - N/A   Overcast
10:23 PM 53.6 °F 53.6 °F 100% 30.00 in 0.2 mi Calm Calm - N/A Fog Fog
10:40 PM 53.6 °F 53.6 °F 100% 30.00 in 0.5 mi Calm Calm - N/A Fog Fog
10:56 PM 53.1 °F 53.1 °F 100% 30.09 in 0.8 mi Calm Calm - N/A   Overcast
11:06 PM 53.6 °F 51.8 °F 94% 30.01 in 0.5 mi Calm Calm - N/A Fog Fog
11:47 PM 51.8 °F 51.8 °F 100% 30.00 in 0.2 mi Calm Calm - N/A Fog Fog
11:56 PM 51.1 °F 51.1 °F 100% 30.07 in 0.2 mi Calm Calm - N/A Fog Fog